Dewpoint
58 60 58 62 63 63 64 66 67 71 69 67 65 65 70 73 73 74 71 72 74 72 73 68 70 73 70 71 69 67 68 63 64 68 60 59 60 60 59 60 60 62 62
58 59 58 62 63 63 64 67 68 72 70 68 70 66 71 71 73 73 71 71 71 73 71 74 70 73 67 71 69 73 71 64 64 67 64 57 57 56 57 59 58 61 60
57 58 61 62 64 63 63 66 69 71 72 72 69 69 69 72 71 72 68 70 72 71 72 73 76 71 73 66 70 68 72 69 61 70 63 62 60 58 59 61 59 63 60
59 58 60 62 63 62 61 66 69 71 71 72 72 74 68 68 65 70 73 69 72 71 71 72 72 73 71 73 69 65 73 69 62 59 60 68 67 68 54 56 58 59 59
58 59 61 62 63 61 62 66 70 73 73 73 75 70 72 68 67 72 73 74 74 72 71 73 73 73 71 73 73 72 73 64 63 62 61 66 61 65 62 54 56 57 58
60 61 62 63 63 60 61 65 71 73 73 72 73 74 73 73 72 71 69 68 67 69 72 72 73 74 75 73 70 73 72 73 71 67 65 67 66 64 58 56 61 58 60
59 61 62 61 62 62 60 64 70 73 73 72 72 73 73 72 73 72 68 68 73 65 73 73 74 72 74 72 73 75 73 70 69 72 70 66 67 65 61 68 59 59 59
59 59 61 63 63 63 60 63 68 72 72 72 74 74 74 69 68 71 69 67 71 71 75 73 72 72 73 72 73 70 68 73 69 70 73 70 66 70 67 66 62 58 59
60 60 60 62 63 64 63 63 69 71 72 71 73 74 74 73 70 74 71 68 73 73 72 72 72 72 72 73 74 69 72 75 72 71 72 70 67 64 64 63 63 63 60
64 64 64 62 63 63 62 62 65 70 71 71 71 71 73 74 73 71 73 72 73 71 73 72 72 71 72 72 74 73 74 73 69 65 74 74 68 65 64 63 64 64 63
58 60 61 64 66 65 64 64 64 67 69 70 71 71 71 72 73 71 71 73 71 72 72 75 73 72 72 72 75 76 72 72 73 73 71 74 77 67 63 63 63 64 64
49 55 58 60 60 63 65 68 64 64 66 69 72 70 71 71 71 72 72 73 74 72 72 73 73 73 72 73 74 72 69 71 71 71 74 70 68 76 76 68 76 70 73
46 48 52 52 54 58 64 65 67 66 63 67 67 69 69 70 71 71 72 74 74 74 70 72 74 72 72 74 75 74 72 71 71 71 72 72 73 75 71 73 69 67 69
45 46 47 50 51 54 57 61 62 66 67 70 66 68 70 70 71 72 73 72 74 74 73 73 74 73 71 72 73 74 74 73 72 72 72 72 73 75 76 73 76 73 72
42 43 44 48 51 54 54 56 58 63 66 68 70 72 70 72 72 72 74 73 74 74 74 74 74 73 71 67 73 73 73 75 73 73 73 73 72 70 72 70 75 76 73
42 42 43 45 47 48 53 55 54 57 62 63 67 71 71 73 73 73 73 74 74 75 75 73 73 73 67 64 65 70 73 74 75 75 75 75 72 70 67 67 68 71 75
42 42 42 44 47 46 49 51 56 55 57 60 61 65 69 71 72 74 74 74 74 74 76 75 74 74 74 64 63 66 69 72 74 75 76 72 66 72 73 69 67 68 66
42 43 40 44 47 47 48 50 49 53 54 56 55 59 62 67 70 73 73 74 74 74 74 74 76 76 74 64 62 64 73 72 73 74 75 76 75 74 74 74 73 73 74
40 41 41 42 47 48 52 54 51 52 53 52 54 57 58 63 66 67 72 75 74 73 73 73 75 76 76 63 61 64 69 69 73 73 74 74 75 70 65 73 74 75 74
42 42 43 43 43 47 47 49 50 53 53 54 54 55 56 60 65 66 65 71 75 72 71 72 73 71 75 67 60 63 68 69 68 72 74 66 70 65 63 74 74 74 74
42 43 44 44 46 47 47 49 50 50 52 53 54 55 56 56 60 64 64 67 70 74 73 72 74 76 74 74 60 58 71 69 67 67 66 67 62 60 59 60 75 73 74
40 41 42 43 45 46 47 49 50 52 53 54 54 55 56 55 52 61 64 64 66 69 73 75 74 76 76 67 63 58 59 68 70 69 65 67 57 56 58 60 63 62 64
41 41 42 43 45 46 47 48 50 52 52 53 53 53 54 55 57 56 61 58 65 63 65 71 72 73 76 73 62 58 58 59 68 70 67 58 57 53 56 57 59 60 68
41 41 43 43 45 46 47 47 48 49 50 50 51 51 51 52 53 52 53 53 50 55 57 65 72 73 75 76 72 72 67 61 64 66 68 66 63 60 64 65 63 65 68
41 42 43 43 45 46 46 46 47 47 46 47 46 47 47 49 51 54 51 50 56 53 56 58 62 65 68 69 63 61 69 74 70 69 70 69 69 69 69 70 71 71 70
42 42 44 44 45 45 45 46 46 46 45 45 43 43 44 45 45 47 49 48 48 47 46 47 53 58 53 53 54 53 54 51 52 69 69 68 69 69 68 69 70 71 69
Lifted_Index
-1 -1 -1 -2 -2 -1 -1 -1 -2 -2 -2 -2 -2 -2 -3 -4 -4 -4 -4 -4 -4 -3 -3 -3 -3 -3 -3 -3 -3 -3 -3 -2 -2 -2 -1 -1 -1 -1 -1 -1 -2 -2 -3
-1 -1 -2 -2 -2 -1 -1 -1 -2 -2 -2 -2 -3 -3 -3 -4 -4 -4 -4 -4 -4 -3 -3 -3 -3 -3 -3 -3 -3 -3 -3 -2 -2 -2 -2 -1 -1 -1 -1 -1 -2 -3 -3
-2 -2 -2 -2 -2 -1 -1 -1 -2 -2 -3 -3 -3 -3 -3 -3 -4 -4 -4 -4 -4 -3 -3 -4 -3 -3 -3 -3 -3 -3 -3 -2 -1 -1 -2 -2 -2 -2 -2 -2 -2 -2 -3
-2 -2 -2 -3 -2 -1 -1 -1 -2 -3 -3 -3 -3 -3 -3 -3 -3 -3 -4 -4 -4 -4 -4 -4 -4 -3 -3 -3 -3 -3 -3 -2 -1 -1 -1 -2 -3 -3 -2 -2 -2 -2 -2
-2 -2 -2 -2 -2 -1 -1 -2 -2 -3 -3 -4 -4 -4 -4 -3 -3 -3 -4 -4 -3 -3 -3 -4 -4 -4 -4 -3 -3 -4 -4 -3 -2 -1 -2 -2 -3 -3 -3 -2 -2 -2 -2
-3 -3 -3 -2 -2 -1 -1 -2 -3 -4 -4 -4 -4 -4 -4 -4 -3 -3 -4 -3 -3 -3 -3 -4 -4 -4 -4 -4 -4 -4 -4 -3 -3 -2 -2 -3 -3 -4 -3 -3 -3 -3 -3
-4 -3 -3 -3 -2 -2 -1 -2 -3 -4 -4 -4 -4 -5 -4 -4 -4 -3 -3 -3 -3 -3 -3 -4 -4 -4 -4 -4 -4 -4 -4 -3 -3 -3 -3 -3 -3 -4 -4 -4 -3 -3 -3
-4 -4 -3 -3 -3 -2 -2 -2 -3 -5 -5 -5 -5 -5 -5 -4 -4 -3 -3 -3 -3 -3 -4 -4 -4 -4 -4 -3 -3 -3 -3 -3 -3 -3 -4 -4 -4 -4 -4 -4 -4 -4 -4
-4 -3 -3 -3 -3 -3 -2 -2 -3 -5 -5 -5 -5 -5 -5 -5 -4 -4 -3 -3 -3 -3 -4 -4 -4 -3 -3 -3 -3 -3 -3 -4 -3 -3 -4 -4 -4 -3 -3 -4 -4 -4 -4
-3 -3 -3 -3 -3 -3 -3 -3 -3 -4 -5 -5 -5 -5 -5 -5 -4 -4 -4 -4 -4 -3 -4 -4 -4 -4 -3 -3 -4 -4 -3 -3 -3 -3 -4 -4 -4 -3 -3 -3 -3 -4 -4
-4 -3 -3 -3 -3 -3 -3 -3 -3 -4 -5 -5 -5 -5 -5 -5 -5 -4 -4 -4 -4 -4 -4 -4 -4 -4 -3 -3 -4 -4 -3 -3 -3 -3 -4 -4 -5 -4 -3 -3 -3 -4 -4
-4 -4 -3 -3 -3 -3 -3 -4 -4 -4 -4 -4 -4 -4 -5 -5 -5 -5 -5 -4 -4 -4 -4 -4 -4 -4 -4 -4 -4 -3 -3 -3 -3 -3 -4 -4 -5 -5 -5 -4 -4 -4 -4
-3 -3 -3 -3 -3 -3 -3 -3 -4 -4 -4 -4 -4 -4 -4 -5 -5 -5 -5 -5 -5 -4 -4 -4 -4 -4 -4 -4 -4 -4 -3 -3 -3 -3 -4 -4 -4 -5 -5 -5 -4 -4 -5
-3 -3 -3 -3 -3 -3 -3 -3 -3 -3 -4 -4 -4 -4 -4 -5 -5 -5 -5 -5 -5 -5 -5 -4 -4 -4 -4 -4 -4 -4 -4 -4 -4 -4 -4 -4 -4 -5 -5 -5 -5 -5 -5
-2 -2 -3 -3 -3 -3 -2 -2 -2 -3 -3 -3 -4 -4 -5 -5 -5 -5 -6 -6 -6 -6 -6 -5 -5 -4 -4 -3 -4 -4 -4 -5 -4 -4 -4 -4 -4 -4 -4 -4 -5 -5 -5
0 0 -0 -1 -1 -0 0 -0 -1 -2 -2 -2 -3 -4 -4 -5 -5 -5 -6 -6 -6 -6 -6 -6 -5 -5 -4 -3 -3 -3 -4 -5 -5 -5 -5 -5 -4 -4 -4 -4 -4 -4 -4
4 4 4 4 4 4 5 4 3 1 -0 -1 -2 -3 -4 -4 -5 -5 -5 -6 -6 -6 -6 -6 -6 -6 -5 -3 -2 -2 -3 -4 -5 -5 -5 -5 -4 -4 -4 -4 -4 -3 -3
8 8 8 8 8 8 8 7 6 5 2 0 -1 -2 -3 -4 -4 -4 -5 -5 -6 -6 -6 -6 -6 -6 -6 -4 -3 -2 -3 -3 -4 -5 -5 -5 -5 -6 -5 -5 -5 -5 -4
9 9 9 9 9 9 8 8 8 7 5 4 2 0 -1 -3 -3 -4 -4 -5 -5 -5 -5 -6 -6 -7 -6 -5 -4 -3 -2 -3 -3 -4 -5 -5 -6 -6 -5 -5 -6 -6 -6
10 10 10 10 9 9 9 8 8 8 7 7 6 5 2 0 -1 -2 -3 -4 -5 -5 -5 -5 -6 -6 -6 -6 -5 -4 -3 -3 -3 -4 -4 -4 -4 -4 -4 -5 -5 -6 -6
10 10 11 10 10 10 9 9 8 8 8 8 8 7 6 4 2 1 -1 -2 -4 -5 -5 -6 -6 -6 -6 -6 -5 -5 -4 -3 -3 -3 -3 -3 -3 -2 -3 -3 -4 -5 -5
10 11 11 11 11 11 11 10 10 9 9 9 8 8 7 7 6 4 2 0 -2 -3 -4 -5 -6 -6 -6 -6 -5 -5 -4 -4 -3 -3 -3 -3 -2 -2 -1 -2 -2 -3 -3
10 10 11 11 11 12 11 11 11 11 10 10 10 9 8 8 7 6 4 3 1 -0 -2 -4 -5 -6 -6 -6 -5 -5 -5 -4 -4 -4 -3 -3 -2 -2 -2 -2 -2 -2 -2
9 10 10 11 11 11 12 12 12 12 12 12 11 11 10 9 8 6 6 5 4 3 1 -2 -4 -5 -5 -6 -5 -5 -5 -5 -4 -4 -4 -3 -3 -3 -3 -3 -3 -3 -3
9 10 10 10 10 11 12 12 12 13 13 13 13 12 11 10 9 7 7 6 6 5 3 1 -1 -2 -3 -4 -5 -5 -5 -5 -5 -5 -4 -4 -4 -4 -4 -4 -4 -4 -4
9 9 10 10 10 11 11 12 13 13 13 13 13 13 12 11 10 8 7 6 6 6 6 4 2 1 -1 -3 -4 -5 -5 -5 -5 -5 -5 -5 -5 -5 -5 -5 -5 -5 -4